#timestamp,LO_Frequency,Hit,StdDev 
1556100015.4,286047005.0,N
1556100035.2,286047005.0,N
1556100055.0,286047005.0,N
1556100055.9,286047005.0,N
1556100075.8,286047004.6,N
1556100095.6,286047007.5,Y
1556100115.4,286047004.0,P
1556100135.3,286047004.2,P
1556100155.1,286047004.4,P
1556100175.9,286047003.7,Y
1556100195.7,286046998.3,P
1556100215.5,286046998.1,N
1556100235.4,286046998.3,N
1556100255.2,286046998.5,N
1556100275.1,286046998.1,N
1556100276.0,286046998.1,N
1556100295.8,286047001.1,N
1556100315.6,286047000.8,N
1556100335.5,286047000.7,N
1556100355.3,286047001.2,N
1556100375.1,286047001.1,N
1556100395.9,286047001.0,N
1556100415.7,286047000.9,N
1556100435.6,286046999.9,N
1556100455.4,286047000.4,N
1556100475.2,286047001.0,N
1556100495.1,286047000.6,N
1556100496.0,286047000.6,N
1556100515.8,286047000.1,N
1556100535.7,286047000.1,N
1556100555.5,286046999.8,N
1556100575.3,286047002.2,N
1556100595.2,286047002.8,N
1556100615.0,286047002.4,N
1556100615.9,286047002.4,N
1556100635.7,286047002.6,N
1556100655.6,286047001.6,N
1556100675.4,286047002.6,N
1556100695.3,286047002.2,N
1556100715.1,286047002.0,N
1556100716.0,286047002.0,N
1556100735.8,286047002.0,N
1556100755.7,286047001.9,N
1556100775.5,286047001.8,N
1556100795.4,286047001.8,N
1556100815.2,286047001.4,N
1556100835.0,286047001.4,N
1556100835.9,286047001.4,N
1556100855.8,286047001.4,N
1556100875.6,286047001.4,N
1556100895.4,286047001.9,N
1556100915.3,286047004.4,Y
1556100935.1,286047002.5,P
1556100955.9,286047002.2,P
1556100975.7,286047002.2,P
1556100995.5,286047002.0,Y
1556101015.4,286046998.2,P
1556101035.2,286047000.8,N
1556101055.1,286047000.8,N
1556101056.0,286047000.8,N
1556101075.8,286047000.9,N
1556101095.6,286047001.0,N
1556101115.5,286047001.0,N
1556101135.3,286047000.4,N
1556101155.1,286047000.3,N
1556101175.9,286046999.9,N
1556101195.7,286047000.6,N
1556101215.6,286047000.6,N
1556101235.4,286047000.5,N
1556101255.2,286047000.1,N
1556101275.1,286046999.7,N
1556101276.0,286046999.7,N
1556101295.8,286047000.0,N
1556101315.7,286047000.0,N
1556101335.5,286047002.7,Y
1556101355.3,286047000.4,P
1556101375.2,286047000.0,P
1556101395.0,286047000.4,N
1556101425.9,286047000.0,E
1556101435.9,286047000.6,N
1556101455.7,286047000.1,P
1556101475.5,286046999.7,N
1556101495.4,286047002.8,Y
1556101515.2,286047002.7,P
1556101535.1,286046999.8,N
1556101536.0,286046999.8,N
1556101555.8,286047000.0,N
1556101575.6,286047000.4,N
1556101595.5,286046999.8,N
1556101615.3,286047000.2,N
1556101635.1,286046999.7,N
1556101655.9,286047000.0,N
1556101675.7,286046999.9,N
1556101695.6,286047002.3,N
1556101715.4,286047002.4,N
1556101735.2,286046999.8,N
1556101755.1,286047000.1,N
1556101756.0,286047000.1,N
1556101775.8,286046999.8,N
1556101795.7,286046999.8,N
1556101815.5,286047002.7,N
1556101835.3,286047002.7,N
1556101855.2,286047002.4,N
1556101875.0,286047002.6,N
1556101875.9,286047002.6,N
1556101895.8,286047001.6,N
1556101915.6,286047001.7,N
1556101935.4,286047002.2,N
1556101955.3,286047002.1,N
1556101975.1,286047001.8,N
1556101995.8,286047001.8,N
1556102015.7,286047001.5,N
1556102035.5,286047001.5,N
1556102055.4,286047002.5,N
1556102075.2,286047002.2,N
1556102095.0,286047001.8,N
1556102095.9,286047001.8,N
1556102115.8,286047001.4,N
1556102135.6,286047001.3,N
1556102155.4,286047001.3,N
1556102175.3,286047001.5,N
1556102195.1,286047004.4,Y
1556102215.9,286047000.0,P
1556102235.7,286047002.7,P
1556102255.5,286047002.7,N
1556102275.4,286046999.7,N
1556102295.2,286046999.8,N
1556102315.1,286047000.1,N
1556102316.0,286047000.1,N
1556102335.8,286046999.8,N
1556102355.6,286046999.8,N
1556102375.5,286046999.8,N
1556102395.3,286047000.4,N
1556102415.2,286047000.0,N
1556102435.9,286046999.9,N
1556102455.7,286047000.2,N
1556102475.6,286047002.4,N
1556102495.4,286046999.9,N
1556102515.2,286047000.3,N
1556102535.1,286047000.2,N
1556102536.0,286047000.2,N
1556102555.8,286046999.9,N
1556102575.7,286047000.2,N
1556102595.5,286047000.2,N
1556102615.3,286047002.4,N
1556102635.2,286046999.8,N
1556102655.0,286047002.8,N
1556102655.9,286047002.8,N
1556102675.7,286046999.7,N
1556102695.6,286046999.7,N
1556102715.4,286046999.7,N
1556102735.3,286046999.7,N
1556102755.1,286046999.7,N
1556102775.8,286046999.8,N
1556102795.7,286046999.8,N
1556102815.5,286047000.1,N
1556102835.4,286047000.2,N
1556102855.2,286047000.2,N
1556102875.0,286046999.9,N
1556102875.9,286046999.9,N
1556102895.8,286047000.3,N
1556102915.6,286047000.3,N
1556102935.4,286046999.9,N
1556102955.3,286047000.0,N
1556102975.1,286047002.7,N
1556102995.9,286047000.2,N
1556103015.7,286046999.9,N
1556103035.5,286047000.2,N
1556103055.4,286046999.9,N
1556103075.2,286047000.1,N
1556103095.0,286047000.2,N
1556103096.0,286047000.2,N
1556103115.8,286046999.8,N
1556103135.6,286047000.1,N
1556103155.5,286047000.4,N
1556103175.3,286046999.8,N
1556103195.1,286046999.7,N
1556103215.9,286047002.8,Y
1556103235.7,286047000.1,P
1556103255.6,286046999.9,P
1556103275.4,286047000.0,N
1556103295.2,286047000.0,N
1556103315.1,286046999.9,N
1556103316.0,286046999.9,N
1556103335.8,286047000.2,N
1556103355.7,286047000.3,N
1556103375.5,286047000.4,N
1556103395.3,286047000.5,N
1556103415.2,286046999.7,N
1556103435.9,286047000.3,N
1556103455.7,286046999.9,N
1556103475.6,286047000.2,N
1556103495.4,286046999.9,N
1556103515.3,286047000.3,N
1556103535.1,286047000.0,N
1556103536.0,286047000.0,N
1556103555.8,286046999.9,N
1556103575.7,286047000.2,N
1556103595.5,286047000.9,Y
